Location: Bun
(42.9667°N, 0.1500°W)
Time: 04:28:08
(UTC+00:00)

Meteor 1-27 - Pass Details

Date: 03 February 2023
Orbit: 836 x 893 km, 81.3° (Epoch: 26 March)

Event Time Altitude Azimuth Distance (km) Brightness Sun altitude
Rises 18:55:55 0° 349° (N) 3,495 7.5 -18.6°
Reaches altitude 10° 18:58:23 10° 349° (N) 2,545 6.8 -19.1°
Maximum altitude 19:04:11 88° 265° (W) 877 4.2 -20.1°
Drops below altitude 10° 19:09:52 10° 173° (S) 2,489 6.6 -21.2°
Sets 19:12:15 0° 173° (S) 3,413 7.3 -21.6°
